Погода в Новоселках

Россия / Рязанская область     54°50′22″N   39°46′23″E
темп.,
°C
ветер,
м/с
пор.,
м/с
влажн.,
%
обл.,
%
осадки,
мм/ч
давл.,
гПа
погр.,
м
21 апреля, ср
ср2100:00+2всв51498100 3.3 1010663
03:00+3всв51298100 7.4 1005764
06:00+2з4598100 5.8 1002172
09:00+2ююз3699100 8.6 1005228
12:00+3юз3696100 0.3 1007510
15:00+4зюз4785100 0.3 1009804
18:00+4юз4888100 0.0 1011491
21:00+4ююз4989100 0.0 1013336
22 апреля, чт
чт2200:00+4ююз3991100 0.0 1014299
03:00+4юз3696100 0.0 1015566
06:00+4ю369615 0.1 1016244
09:00+7юз587935 0.1 1017679
12:00+10юз6869100 0.1 10181211
15:00+10ююз587421 0.1 1018857
18:00+12ю487141 0.0 1017544
21:00+8ююв4128622 0.0 1018274
23 апреля, пт
пт2300:00+8ю4128675 0.0 1018288
03:00+7ю4118724 0.0 1017242
06:00+8ю41383100 0.0 1018310
09:00+13ю6126342 0.0 1018670
12:00+16ю794391 0.0 10172552
15:00+16ююв695287 0.0 10161848
18:00+14ююв5105624 0.0 1015836
21:00+11ююв6146618 0.0 1014496
24 апреля, сб
сб2400:00+10юв6167699 0.1 1012448
03:00+8юв5148265 0.1 1009369
06:00+8ююв61286100 0.1 1008655
09:00+3з5894100 0.6 1009558
12:00+5з4693100 0.9 1009933
15:00+8з4671100 1.3 10091096
18:00+8зсз475851 0.6 1008821
21:00+4зюз310751 0.7 1009206
25 апреля, вс
вс2500:00+2зюз410822 0.0 1009219
03:00+1зюз410855 0.0 1010252
06:00+1зюз410885 0.0 1010389
09:00+5зюз686713 0.0 10111116
12:00+8зюз6851100 0.7 10111964
15:00+8зюз694980 1.6 10112012
18:00+6з585822 0.4 10111224
21:00+3юз310775 0.7 1013237